• în Republica Moldova
  • Lista ţărilor
  • Pe 7 zile
  • Temperatura apei
  • Hartă satelitară
  • Meteo pe hartă
  • Widget-uri
  • user-avatar
    Intrare

    Meteo pe oră la Ondjiwa

    Astăzi, 20 August, Duminică

    Timp Temperatura Precipitaţii Vânt Presiune Umiditate
    00:00 +18°C° 0 mm 3 m/s 668 mmHg 19%
    01:00 +17°C° 0 mm 3 m/s 668 mmHg 19%
    02:00 +16°C° 0 mm 2 m/s 668 mmHg 20%
    03:00 +16°C° 0 mm 2 m/s 668 mmHg 21%
    04:00 +15°C° 0 mm 1 m/s 668 mmHg 22%
    05:00 +15°C° 0 mm 1 m/s 668 mmHg 22%
    06:00 +15°C° 0 mm 1 m/s 669 mmHg 22%
    07:00 +15°C° 0 mm 1 m/s 669 mmHg 22%
    08:00 +19°C° 0 mm 2 m/s 670 mmHg 18%
    09:00 +24°C° 0 mm 3 m/s 671 mmHg 14%
    10:00 +28°C° 0 mm 4 m/s 672 mmHg 10%
    11:00 +30°C° 0 mm 4 m/s 672 mmHg 9%
    12:00 +33°C° 0 mm 3 m/s 671 mmHg 9%
    13:00 +35°C° 0 mm 3 m/s 671 mmHg 8%
    14:00 +35°C° 0 mm 3 m/s 670 mmHg 8%
    15:00 +35°C° 0 mm 3 m/s 670 mmHg 8%
    16:00 +35°C° 0 mm 2 m/s 669 mmHg 8%
    17:00 +31°C° 0 mm 2 m/s 669 mmHg 9%
    18:00 +28°C° 0 mm 2 m/s 669 mmHg 11%
    19:00 +25°C° 0 mm 2 m/s 669 mmHg 13%
    20:00 +24°C° 0 mm 3 m/s 669 mmHg 14%
    21:00 +22°C° 0 mm 3 m/s 669 mmHg 15%
    22:00 +20°C° 0 mm 3 m/s 669 mmHg 16%
    23:00 +20°C° 0 mm 3 m/s 669 mmHg 16%

    Mâine, 21 August, Luni

    Timp Temperatura Precipitaţii Vânt Presiune Umiditate
    00:00 +19°C° 0 mm 3 m/s 669 mmHg 17%
    01:00 +18°C° 0 mm 3 m/s 669 mmHg 17%
    02:00 +18°C° 0 mm 3 m/s 668 mmHg 17%
    03:00 +17°C° 0 mm 3 m/s 668 mmHg 18%
    04:00 +16°C° 0 mm 3 m/s 668 mmHg 18%
    05:00 +16°C° 0 mm 3 m/s 668 mmHg 18%
    06:00 +16°C° 0 mm 3 m/s 668 mmHg 18%
    07:00 +16°C° 0 mm 3 m/s 669 mmHg 19%
    08:00 +20°C° 0 mm 3 m/s 670 mmHg 16%
    09:00 +26°C° 0 mm 4 m/s 671 mmHg 13%
    10:00 +30°C° 0 mm 5 m/s 672 mmHg 10%
    11:00 +32°C° 0 mm 4 m/s 671 mmHg 9%
    12:00 +34°C° 0 mm 4 m/s 671 mmHg 8%
    13:00 +36°C° 0 mm 3 m/s 670 mmHg 7%
    14:00 +36°C° 0 mm 3 m/s 670 mmHg 6%
    15:00 +36°C° 0 mm 3 m/s 669 mmHg 6%
    16:00 +36°C° 0 mm 3 m/s 669 mmHg 6%
    17:00 +33°C° 0 mm 3 m/s 668 mmHg 7%
    18:00 +28°C° 0 mm 3 m/s 668 mmHg 8%
    19:00 +25°C° 0 mm 3 m/s 668 mmHg 10%
    20:00 +24°C° 0 mm 3 m/s 668 mmHg 10%
    21:00 +22°C° 0 mm 3 m/s 668 mmHg 11%
    22:00 +21°C° 0 mm 3 m/s 669 mmHg 12%
    23:00 +20°C° 0 mm 3 m/s 668 mmHg 13%

    Poimâine, 22 August, Marţi

    Timp Temperatura Precipitaţii Vânt Presiune Umiditate
    00:00 +19°C° 0 mm 2 m/s 668 mmHg 13%
    01:00 +18°C° 0 mm 2 m/s 668 mmHg 14%
    02:00 +18°C° 0 mm 2 m/s 667 mmHg 16%
    03:00 +17°C° 0 mm 2 m/s 667 mmHg 18%
    04:00 +17°C° 0 mm 2 m/s 667 mmHg 20%
    05:00 +17°C° 0 mm 2 m/s 668 mmHg 21%
    06:00 +17°C° 0 mm 2 m/s 668 mmHg 23%
    07:00 +17°C° 0 mm 2 m/s 668 mmHg 24%
    08:00 +21°C° 0 mm 3 m/s 669 mmHg 20%
    09:00 +26°C° 0 mm 3 m/s 670 mmHg 17%
    10:00 +30°C° 0 mm 4 m/s 671 mmHg 13%
    11:00 +33°C° 0 mm 4 m/s 671 mmHg 11%
    12:00 +35°C° 0 mm 4 m/s 670 mmHg 9%
    13:00 +36°C° 0 mm 4 m/s 669 mmHg 7%
    14:00 +36°C° 0 mm 4 m/s 669 mmHg 7%
    15:00 +36°C° 0 mm 3 m/s 668 mmHg 7%
    16:00 +36°C° 0 mm 3 m/s 668 mmHg 6%
    17:00 +33°C° 0 mm 3 m/s 667 mmHg 8%
    18:00 +29°C° 0 mm 3 m/s 667 mmHg 10%
    19:00 +26°C° 0 mm 2 m/s 666 mmHg 12%
    20:00 +25°C° 0 mm 2 m/s 667 mmHg 13%
    21:00 +23°C° 0 mm 2 m/s 667 mmHg 14%
    22:00 +21°C° 0 mm 2 m/s 667 mmHg 16%
    23:00 +20°C° 0 mm 2 m/s 666 mmHg 17%

    23 August, Miercuri

    Timp Temperatura Precipitaţii Vânt Presiune Umiditate
    00:00 +20°C° 0 mm 2 m/s 666 mmHg 18%
    01:00 +19°C° 0 mm 2 m/s 665 mmHg 19%
    02:00 +18°C° 0 mm 2 m/s 665 mmHg 20%
    03:00 +17°C° 0 mm 2 m/s 665 mmHg 21%
    04:00 +17°C° 0 mm 2 m/s 665 mmHg 22%
    05:00 +17°C° 0 mm 2 m/s 666 mmHg 23%
    06:00 +17°C° 0 mm 2 m/s 666 mmHg 24%
    07:00 +17°C° 0 mm 2 m/s 667 mmHg 24%
    08:00 +23°C° 0 mm 2 m/s 668 mmHg 20%
    09:00 +27°C° 0 mm 3 m/s 669 mmHg 16%
    10:00 +33°C° 0 mm 4 m/s 670 mmHg 12%
    11:00 +34°C° 0 mm 3 m/s 669 mmHg 11%
    12:00 +35°C° 0 mm 3 m/s 668 mmHg 9%
    13:00 +37°C° 0 mm 2 m/s 667 mmHg 8%
    14:00 +37°C° 0 mm 2 m/s 667 mmHg 8%
    15:00 +36°C° 0 mm 1 m/s 666 mmHg 7%
    16:00 +34°C° 0 mm 0 m/s 666 mmHg 7%
    17:00 +33°C° 0 mm 1 m/s 666 mmHg 9%
    18:00 +30°C° 0 mm 1 m/s 665 mmHg 11%
    19:00 +26°C° 0 mm 2 m/s 665 mmHg 12%
    20:00 +25°C° 0 mm 2 m/s 665 mmHg 13%
    21:00 +24°C° 0 mm 2 m/s 665 mmHg 14%
    22:00 +23°C° 0 mm 2 m/s 665 mmHg 15%
    23:00 +21°C° 0 mm 2 m/s 665 mmHg 15%

    24 August, Joi

    Timp Temperatura Precipitaţii Vânt Presiune Umiditate
    00:00 +20°C° 0 mm 2 m/s 665 mmHg 16%
    01:00 +20°C° 0 mm 1 m/s 664 mmHg 17%
    02:00 +20°C° 0 mm 1 m/s 664 mmHg 18%
    03:00 +19°C° 0 mm 1 m/s 664 mmHg 19%
    04:00 +18°C° 0 mm 1 m/s 664 mmHg 20%
    05:00 +18°C° 0 mm 1 m/s 665 mmHg 20%
    06:00 +19°C° 0 mm 1 m/s 666 mmHg 20%
    07:00 +19°C° 0 mm 1 m/s 666 mmHg 20%
    08:00 +23°C° 0 mm 1 m/s 667 mmHg 17%
    09:00 +27°C° 0 mm 2 m/s 668 mmHg 13%
    10:00 +30°C° 0 mm 2 m/s 669 mmHg 10%
    11:00 +32°C° 0 mm 2 m/s 668 mmHg 9%
    12:00 +36°C° 0 mm 2 m/s 668 mmHg 8%
    13:00 +37°C° 0 mm 1 m/s 667 mmHg 8%
    14:00 +36°C° 0 mm 1 m/s 667 mmHg 8%
    15:00 +36°C° 0 mm 1 m/s 666 mmHg 8%
    16:00 +36°C° 0 mm 2 m/s 666 mmHg 8%
    17:00 +32°C° 0 mm 2 m/s 665 mmHg 10%
    18:00 +29°C° 0 mm 2 m/s 665 mmHg 11%
    19:00 +27°C° 0 mm 3 m/s 665 mmHg 13%
    20:00 +26°C° 0 mm 3 m/s 665 mmHg 14%
    21:00 +25°C° 0 mm 3 m/s 666 mmHg 14%
    22:00 +23°C° 0 mm 4 m/s 666 mmHg 15%
    23:00 +22°C° 0 mm 4 m/s 666 mmHg 18%

    25 August, Vineri

    Timp Temperatura Precipitaţii Vânt Presiune Umiditate
    00:00 +20°C° 0 mm 3 m/s 666 mmHg 21%
    01:00 +19°C° 0 mm 3 m/s 666 mmHg 23%
    02:00 +18°C° 0 mm 3 m/s 666 mmHg 26%
    03:00 +16°C° 0 mm 2 m/s 666 mmHg 28%
    04:00 +15°C° 0 mm 2 m/s 666 mmHg 30%
    05:00 +15°C° 0 mm 2 m/s 666 mmHg 30%
    06:00 +15°C° 0 mm 2 m/s 667 mmHg 30%
    07:00 +16°C° 0 mm 2 m/s 667 mmHg 30%
    08:00 +19°C° 0 mm 2 m/s 668 mmHg 23%
    09:00 +24°C° 0 mm 2 m/s 669 mmHg 16%
    10:00 +28°C° 0 mm 2 m/s 670 mmHg 10%
    11:00 +30°C° 0 mm 2 m/s 669 mmHg 9%
    12:00 +32°C° 0 mm 2 m/s 669 mmHg 8%
    13:00 +34°C° 0 mm 2 m/s 668 mmHg 7%
    14:00 +35°C° 0 mm 2 m/s 668 mmHg 7%
    15:00 +35°C° 0 mm 3 m/s 667 mmHg 7%
    16:00 +35°C° 0 mm 3 m/s 667 mmHg 7%
    17:00 +31°C° 0 mm 3 m/s 667 mmHg 9%
    18:00 +28°C° 0 mm 3 m/s 666 mmHg 10%
    19:00 +25°C° 0 mm 3 m/s 666 mmHg 12%
    20:00 +24°C° 0 mm 3 m/s 666 mmHg 12%
    21:00 +24°C° 0 mm 2 m/s 667 mmHg 12%
    22:00 +23°C° 0 mm 2 m/s 667 mmHg 12%
    23:00 +21°C° 0 mm 2 m/s 667 mmHg 12%
    Arată mai mult